Location: Monrovia
(34.7865°N, 86.7139°W)
Time: 21:31:22
(UTC+00:00)

Cosmos 1825 Rocket - Pass Details

Date: 14 July 2020
Orbit: 603 x 631 km, 82.5° (Epoch: 08 August)

Event Time Altitude Azimuth Distance (km) Brightness Sun altitude
Rises 01:33:37 0° 179° (S) 2,896 6.7 -6.6°
Reaches altitude 10° 01:35:50 10° 177° (S) 1,996 5.8 -7.0°
Maximum altitude 01:40:14 69° 95° (E) 676 3.6 -7.7°
Drops below altitude 10° 01:44:41 10° 12° (NNE) 2,017 6.5 -8.5°
Sets 01:46:56 0° 10° (N) 2,929 7.4 -8.9°
